Location: Caltech
(34.1382°N, 118.1253°W)
Time: 12:21:42
(UTC-07:00)

Uribyol 2 - Visible Passes

Search period start: 01 May 2016 00:00
Search period end: 11 May 2016 00:00
Orbit: 782 x 797 km, 98.7° (Epoch: 30 April)

Date Brightness Start Highest point End Pass type
(mag) Time Alt. Az. Time Alt. Az. Time Alt. Az.
01 May ? 03:35:03 10° NNE 03:40:15 77° ESE 03:40:53 67° SSE visible
01 May ? 05:17:32 10° NW 05:18:59 11° WNW 05:20:27 10° W visible
02 May ? 03:05:46 10° NNE 03:10:35 38° E 03:10:59 37° ESE visible
02 May ? 04:45:51 10° NNW 04:49:44 22° WNW 04:51:42 18° W visible
03 May ? 02:37:09 10° NE 02:40:48 19° E 02:41:05 19° E visible
03 May ? 04:15:30 10° N 04:20:22 42° WNW 04:21:49 34° WSW visible
04 May ? 03:45:39 10° NNE 03:50:52 84° WNW 03:51:55 58° SSW visible
05 May ? 03:16:13 10° NNE 03:21:15 49° E 03:22:00 45° SE visible
05 May ? 04:56:55 10° NNW 05:00:16 18° WNW 05:02:44 13° W visible
06 May ? 02:47:19 10° NE 02:51:31 24° E 02:52:07 24° ESE visible
06 May ? 04:26:19 10° N 04:30:56 33° WNW 04:32:50 26° WSW visible
07 May ? 02:19:49 10° ENE 02:21:39 12° E 02:22:12 12° E visible
07 May ? 03:56:19 10° N 04:01:28 66° WNW 04:02:55 46° SW visible
08 May ? 03:26:43 10° NNE 03:31:53 63° ESE 03:33:01 50° SSE visible
08 May ? 05:08:11 10° NW 05:10:46 14° WNW 05:13:20 10° W visible
09 May ? 02:57:36 10° NE 03:02:12 31° E 03:03:07 29° ESE visible
09 May ? 04:37:12 10° NNW 04:41:28 27° WNW 04:43:50 19° WSW visible
10 May ? 02:29:21 10° ENE 02:32:23 15° E 02:33:11 15° ESE visible
10 May ? 04:07:01 10° N 04:12:04 52° WNW 04:13:55 35° SW visible
